User: anonymous   Login
Location: Albany
(35.0000°S, 118.0000°E)
Time: 10:12:39
(UTC-04:00)
Language:

Cosmos 2227 Rocket - Orbit

View from above orbital plane
View from above orbital plane
View from above satellite
View from above satellite

Ground track
Ground track

The orbit data is extracted from the following two-line orbital elements,

1 22285U 92093B   17178.69746184 +.00000058 +00000-0 +54368-4 0  9994
2 22285 071.0205 190.2330 0002251 131.6766 228.4550 14.15014471264022
Epoch (UTC): 27 June 2017 16:44:20
Eccentricity: 0.0002251
inclination: 71.0205°
perigee height: 840 km
apogee height: 844 km
right ascension of ascending node: 190.2330°
argument of perigee: 131.6766°
revolutions per day: 14.15014471
mean anomaly at epoch: 228.4550°
orbit number at epoch: 26402

The dashed part of the orbit path shows where the satellite is in the earth's shadow,  

DLR